EW2751 Weather Reports


time (UTC)temp
C
wind
direction
speed
KPH
gust
KPH
rain 1hr
cm
rain 24hr
cm
rain mn
cm
humidity
%
barometer
mb
20260509233007 17 281 11.3 30.6 0.00 0.51 0.08 77 1005.3
20260509231507 17 248 11.3 27.4 0.00 0.51 0.08 76 1005.4
20260509230008 17 245 12.9 30.6 0.00 0.51 0.08 77 1005.5
20260509224504 18 246 9.7 20.9 0.00 0.51 0.08 73 1005.3
20260509223004 18 275 11.3 24.1 0.00 0.51 0.08 73 1005.3
20260509221504 -17 310 8.0 27.4 0.00 0.51 0.08 1005.2
20260509220004 17 276 9.7 20.9 0.00 0.51 0.08 79 1005.1
20260509214504 16 295 8.0 16.1 0.00 0.51 0.08 83 1005.2
20260509212959 16 240 6.4 19.3 0.00 0.51 0.08 84 1005.3
20260509211504 16 247 6.4 16.1 0.00 0.51 0.08 85 1005.2
20260509210003 15 230 4.8 17.7 0.00 0.51 0.08 85 1005.2
20260509203004 15 243 4.8 12.9 0.03 0.51 0.08 86 1005.0
20260509201504 15 270 8.0 17.7 0.03 0.51 0.08 88 1004.7
20260509194504 13 269 1.6 9.7 0.00 0.48 0.05 90 1004.5
20260509193001 13 289 0.0 6.4 0.00 0.48 0.05 89 1004.4
20260509191503 13 239 3.2 9.7 0.00 0.48 0.05 89 1004.3
20260509190004 13 259 6.4 12.9 0.00 0.48 0.05 89 1004.2
20260509183004 13 231 0.0 3.2 0.00 0.48 0.05 88 1004.2
20260509181504 13 283 6.4 19.3 0.00 0.48 0.05 85 1004.3
20260509174501 12 277 0.0 0.0 0.00 0.48 0.05 87 1003.7
20260509173000 12 264 0.0 0.0 0.00 0.48 0.05 88 1003.6
20260509171501 12 260 0.0 0.0 0.00 0.48 0.05 88 1003.6
20260509170003 12 262 0.0 4.8 0.00 0.48 0.05 89 1003.4
20260509164504 12 258 0.0 4.8 0.00 0.48 0.05 89 1003.5
20260509160001 12 256 0.0 4.8 0.03 0.48 0.05 89 1003.3
20260509154501 12 255 0.0 0.0 0.03 0.48 0.05 89 1003.4
20260509153000 13 255 1.6 6.4 0.03 0.48 0.05 90 1003.4
20260509150000 12 271 0.0 0.0 0.00 0.53 0.05 91 1003.6
20260509144500 12 271 0.0 0.0 0.00 0.53 0.05 92 1003.6
20260509143004 13 271 0.0 0.0 0.00 0.53 0.05 92 1003.8
20260509141500 13 278 1.6 6.4 0.00 0.53 0.05 92 1003.8
20260509140000 13 231 0.0 1.6 0.00 0.64 0.05 92 1003.9
20260509134503 13 235 1.6 4.8 0.00 0.64 0.05 93 1003.7
20260509133000 13 262 1.6 12.9 0.00 0.64 0.05 93 1003.7
20260509131501 13 274 0.0 0.0 0.00 0.64 0.05 93 1003.7
20260509130004 13 274 0.0 0.0 0.05 0.64 0.05 93 1003.5
20260509124504 13 274 0.0 0.0 0.05 0.64 0.05 93 1003.7
20260509121506 13 274 0.0 0.0 0.10 0.64 0.05 93 1004.0
20260509120009 13 276 0.0 0.0 0.08 0.61 0.00 92 1004.0
20260509114503 13 276 0.0 0.0 0.08 0.69 0.08 92 1004.1
20260509113004 13 276 0.0 0.0 0.05 0.64 0.05 92 1004.3
20260509111506 13 278 0.0 0.0 0.03 0.61 0.03 92 1004.4
20260509010520 19 341 4.8 22.5 0.03 0.51 0.30 80 1004.4
20260509010019 19 281 4.8 16.1 0.03 0.51 0.30 81 1004.5
20260509005520 18 276 3.2 16.1 0.03 0.51 0.30 82 1004.7
20260509005034 18 254 8.0 19.3 0.03 0.51 0.30 81 1004.8
20260509004521 18 271 11.3 20.9 0.03 0.51 0.30 83 1004.9
20260509004019 17 259 12.9 19.3 0.03 0.51 0.30 84 1005.1
20260509003519 17 272 6.4 20.9 0.03 0.51 0.30 84 1005.2
20260509003019 17 299 11.3 24.1 0.03 0.51 0.30 84 1005.3
20260509002519 17 255 14.5 30.6 0.03 0.51 0.30 83 1005.3
20260509002020 18 303 14.5 30.6 0.03 0.51 0.30 80 1005.4
20260509001520 19 272 6.4 16.1 0.00 0.51 0.28 81 1005.4
20260509001023 19 296 6.4 16.1 0.00 0.51 0.28 81 1005.5
20260509000518 18 330 4.8 14.5 0.00 0.51 0.28 82 1005.6
20260509000018 18 301 4.8 16.1 0.00 0.51 0.28 82 1005.7
20260508235529 18 268 8.0 19.3 0.00 0.51 0.28 81 1005.7
20260508235021 18 290 8.0 19.3 0.00 0.51 0.28 81 1005.7